SCP
0 0 0 0 0 0 0 0 0 0 0 0 0 0 0 0 0 0 0 0 0 0 0 0 0 0 0 0 0 0 0 0 0 0 0 0 0 0
0 0 0 0 0 0 0 0 0 0 0 0 0 0 0 0 0 0 0 0 0 0 0 0 0 0 0 0 0 0 0 0 0 0 0 0 0 0
0 0 0 0 0 0 0 0 0 0 0 0 0 0 0 0 0 0 0 0 0 0 0 0 0 0 0 0 0 0 0 0 0 0 0 0 0 0
1 0 0 0 0 0 0 0 0 0 0 0 0 0 0 0 0 0 0 0 0 0 0 0 0 0 0 0 0 0 0 0 0 0 0 0 0 0
1 1 1 0 0 0 0 0 0 0 0 0 0 0 0 0 0 0 0 0 0 0 0 0 0 0 0 0 0 0 0 0 0 0 0 0 0 0
2 2 1 1 1 0 0 0 0 0 0 0 0 0 0 0 0 0 0 0 0 0 0 0 0 0 0 0 0 0 0 0 0 0 0 0 0 0
2 2 1 1 0 0 0 0 0 0 0 0 0 0 0 0 0 0 0 0 0 0 0 0 0 0 0 0 0 0 0 0 0 0 0 0 0 0
2 1 1 0 0 0 0 0 0 0 0 0 0 0 0 0 0 0 0 0 0 0 0 0 0 0 0 0 0 0 0 0 0 0 0 0 0 0
1 1 1 0 0 0 0 0 0 0 0 0 0 0 0 0 0 0 0 0 0 0 0 0 0 0 0 0 0 0 0 0 0 0 0 0 0 0
1 1 1 0 0 0 0 0 0 0 0 0 0 0 0 0 0 0 0 0 0 0 0 0 0 0 0 0 0 0 0 0 0 0 0 0 0 0
1 1 1 0 0 0 0 0 0 0 0 0 0 0 0 0 0 0 0 0 0 0 0 0 0 0 0 0 0 0 0 0 0 0 0 0 0 0
0 0 0 0 0 0 0 0 0 0 0 0 0 0 0 0 0 0 0 0 0 0 0 0 0 0 0 0 0 0 0 0 0 0 0 0 0 0
0 0 0 0 0 0 0 0 0 0 0 0 0 0 0 0 0 0 0 0 0 0 0 0 0 0 0 0 0 0 0 0 0 0 0 0 0 0
0 0 0 0 0 0 0 0 0 0 0 0 0 0 0 0 0 0 0 0 0 0 0 0 0 0 0 0 0 0 0 0 0 0 0 0 0 0
0 0 0 0 0 0 0 0 0 0 0 0 0 0 0 0 0 0 0 0 0 0 0 0 0 0 0 0 0 0 0 0 0 0 0 0 0 0
0 0 0 0 0 0 0 0 0 0 0 0 0 0 0 0 0 0 0 0 0 0 0 0 0 0 0 0 0 0 0 0 0 0 0 0 0 0
0 0 0 0 0 0 0 0 0 0 0 0 0 0 0 0 0 0 0 0 0 0 0 0 0 0 0 0 0 0 0 0 0 0 0 0 0 0
0 0 0 0 0 0 0 0 0 0 0 0 0 0 0 0 0 0 0 0 0 0 0 0 0 0 0 0 0 0 0 0 0 0 0 0 0 0
0 0 0 0 0 0 0 0 0 0 0 0 0 0 0 0 0 0 0 0 0 0 0 0 0 0 0 0 0 0 0 0 0 0 0 0 0 0
0 0 0 0 0 0 0 0 0 0 0 0 0 0 0 0 0 0 0 0 0 0 0 0 0 0 0 0 0 0 0 0 0 0 0 0 0 0
0 0 0 0 0 0 0 0 0 0 0 0 0 0 0 0 0 0 0 0 0 0 0 0 0 0 0 0 0 0 0 0 0 0 0 0 0 0
0 0 0 0 0 0 0 0 0 0 0 0 0 0 0 0 0 0 0 0 0 0 0 0 0 0 0 0 0 0 0 0 0 0 0 0 0 0
0 0 0 0 0 0 0 0 0 0 0 0 0 0 0 0 0 0 0 0 0 0 0 0 0 0 0 0 0 0 0 0 0 0 0 0 0 0
Wind_Speed
13 14 12 9 8 8 7 7 8 8 8 6 5 6 7 6 10 8 8 11 14 16 16 17 17 17 18 18 18 18 18 17 16 16 15 14 13 13
11 13 14 10 9 8 8 8 9 10 9 4 5 4 6 5 8 7 8 11 12 14 15 15 15 16 17 17 18 18 17 17 17 16 16 15 14 14
14 15 16 13 11 9 9 9 9 9 12 7 4 4 6 6 5 5 5 6 6 11 12 13 14 14 15 15 16 16 16 16 16 16 16 15 15 14
16 16 16 12 14 11 10 11 10 9 10 11 5 4 6 6 5 5 4 4 4 7 11 12 13 13 13 14 15 14 14 14 14 14 14 14 14 14
16 16 15 14 15 12 11 11 9 8 9 9 7 4 3 3 3 3 3 3 3 5 9 11 12 13 13 13 13 13 12 12 13 13 13 14 14 13
15 15 14 15 15 13 11 12 9 9 8 8 7 4 3 3 3 3 4 4 4 3 7 8 9 11 12 13 12 12 12 13 13 13 13 12 12 13
14 14 14 15 16 13 10 10 10 9 7 7 7 5 4 4 5 4 5 3 3 4 3 3 4 4 6 9 10 11 13 13 14 13 13 13 13 13
13 12 11 12 13 15 15 13 12 11 10 8 7 7 7 6 5 5 4 3 3 3 4 3 3 4 4 4 9 12 13 13 14 14 13 13 14 14
12 10 8 8 10 10 12 13 12 13 13 10 9 9 7 7 7 6 6 5 4 4 4 3 3 4 3 5 10 11 12 13 13 13 13 14 14 13
10 10 10 9 9 10 9 8 8 8 9 8 8 7 5 6 7 7 6 4 2 2 3 3 3 2 2 3 8 11 11 12 12 13 13 13 13 12
9 9 9 9 11 13 10 8 7 5 3 5 6 5 6 7 8 6 5 4 3 3 3 3 2 1 1 1 4 8 9 10 11 11 12 12 12 10
6 6 8 10 11 13 10 8 8 6 4 3 3 3 3 5 8 6 6 5 3 3 4 3 2 2 1 1 1 1 3 6 9 10 10 10 10 5
6 5 5 10 11 12 10 8 9 7 6 6 4 4 3 3 2 2 3 4 4 3 4 4 3 3 2 1 1 1 1 1 2 4 6 9 10 8
6 5 5 10 10 10 8 8 9 8 5 5 4 4 3 3 3 3 4 3 2 3 6 5 3 4 4 2 2 1 1 1 1 2 2 5 7 9
4 6 8 10 9 6 8 9 7 5 5 5 5 4 3 4 4 4 4 5 5 4 3 3 3 3 3 3 2 2 1 1 2 2 2 2 2 2
4 5 7 8 7 6 5 5 4 4 4 5 4 4 4 4 4 3 3 3 3 2 3 3 2 3 2 2 2 2 2 2 2 2 2 2 2 2
4 3 3 3 4 3 3 3 3 3 3 3 4 5 4 4 4 3 3 3 3 3 2 1 2 2 1 2 2 3 2 2 2 2 2 2 3 3
6 4 4 4 5 5 5 4 3 4 4 4 4 5 5 5 5 4 3 3 3 3 3 3 2 2 1 1 4 3 2 2 1 2 2 2 3 3
4 4 4 5 4 4 4 4 4 4 4 4 5 5 5 5 5 5 4 3 3 3 3 3 3 3 3 3 2 4 3 2 2 2 2 3 3 3
2 3 3 3 4 4 4 4 4 4 4 4 5 5 5 5 5 5 4 4 4 3 3 3 3 4 4 3 2 2 4 3 2 2 2 1 3 5
2 2 2 3 3 3 3 4 4 5 5 5 5 5 5 5 5 4 4 6 4 4 4 4 3 3 2 2 1 1 1 3 3 2 2 1 2 2
2 2 2 2 3 3 3 4 4 4 5 4 4 4 4 4 5 5 5 5 4 3 3 2 3 3 2 3 3 2 1 1 2 4 4 4 3 3
2 2 2 2 3 3 3 4 4 3 4 4 4 4 4 4 3 4 4 4 4 4 3 3 2 2 2 2 2 1 2 2 1 1 3 5 7 8
Wind_Direction
220 220 224 224 220 220 220 216 231 251 250 224 217 210 209 208 215 215 216 220 222 226 229 232 234 235 236 238 239 239 238 235 232 226 224 225 227 231
219 221 224 224 223 220 220 222 225 240 255 225 214 205 202 209 211 210 214 216 221 225 229 232 234 236 236 238 238 238 238 236 231 226 223 224 227 231
220 222 225 220 223 222 220 222 226 229 250 249 215 207 198 207 208 206 209 212 220 223 226 231 234 236 237 237 237 238 236 234 231 226 224 223 227 230
223 223 225 221 224 223 222 224 225 223 237 252 231 211 211 205 199 201 207 209 215 219 223 230 233 233 233 234 235 234 233 232 230 227 224 223 227 232
222 223 224 220 224 223 222 224 225 223 228 242 242 210 203 181 184 199 203 210 210 215 223 229 230 230 232 233 231 229 226 224 222 219 221 224 227 232
222 222 222 220 223 221 221 223 221 221 223 234 240 217 197 168 169 197 218 212 218 207 222 224 225 228 229 230 228 223 218 216 217 216 216 220 225 231
223 223 223 222 221 220 219 218 216 221 220 227 236 225 202 180 198 189 207 201 213 202 205 215 210 215 222 227 226 220 216 216 216 216 216 218 221 227
224 222 220 217 220 219 219 216 212 217 221 223 229 226 219 204 190 183 184 179 223 195 185 213 191 215 219 216 223 220 218 219 219 217 217 218 222 226
222 220 218 215 212 217 218 219 223 224 219 220 228 226 214 196 181 185 191 195 206 170 162 203 189 214 210 219 220 220 221 220 219 219 219 221 225 226
219 215 215 212 208 204 206 212 220 224 223 225 231 230 210 186 182 183 178 163 120 133 159 192 185 205 198 209 226 224 224 224 222 220 220 223 226 227
221 215 211 211 205 195 196 204 210 216 207 200 207 206 187 171 158 142 147 152 182 189 184 184 169 167 187 224 227 226 227 227 226 223 223 225 227 229
215 213 210 205 198 190 196 197 207 207 174 158 160 160 164 162 164 169 168 168 166 190 181 171 156 143 198 268 239 222 225 229 229 229 229 229 230 224
208 208 206 197 194 191 193 199 202 180 165 165 164 155 141 141 153 159 161 167 173 184 166 158 153 157 163 183 262 228 196 200 216 230 235 237 238 230
213 202 192 185 185 186 190 188 176 163 158 160 166 170 167 163 150 133 118 99 97 145 156 151 151 162 157 167 214 222 208 202 192 204 218 248 251 252
204 184 174 172 170 178 181 173 166 164 164 172 182 184 168 149 132 116 102 96 80 69 99 120 135 148 155 172 179 178 197 221 199 196 210 228 236 242
189 164 159 159 158 152 153 160 166 169 172 177 166 153 138 139 143 138 139 136 119 88 60 71 101 138 158 169 174 196 188 198 190 194 202 235 248 236
160 154 162 165 169 163 152 148 154 159 162 159 156 153 152 150 149 146 145 149 153 154 141 87 70 74 111 161 190 209 199 207 201 183 185 242 248 238
158 174 183 183 182 177 168 161 162 166 163 157 158 159 161 161 156 152 151 160 163 161 156 152 135 88 48 302 212 202 197 203 196 183 181 227 259 252
170 181 183 180 173 168 167 165 168 167 157 157 159 161 158 156 157 161 161 157 158 158 155 153 161 160 177 230 256 199 182 182 172 195 207 211 244 258
168 169 171 168 164 165 166 163 159 155 156 158 158 158 157 157 160 164 167 165 163 159 158 164 180 187 196 199 204 229 205 182 185 214 232 243 266 285
163 156 150 150 154 153 154 156 157 160 159 156 157 159 159 158 162 165 166 164 162 166 181 191 194 168 125 100 107 273 264 222 204 204 196 216 272 276
137 137 132 133 138 141 141 143 146 147 149 149 151 154 156 157 161 163 166 167 169 170 171 155 137 136 148 186 215 223 249 289 282 270 249 223 204 226
113 115 115 121 123 127 130 134 139 142 145 144 145 146 145 147 152 156 159 159 156 155 150 148 149 155 180 192 208 223 238 255 271 287 283 277 274 274